| time (UTC) | temp F | wind direction | speed knots | gust knots | rain 1hr in | rain 24hr in | rain mn in | humidity % | barometer mb |
| 20260506051243 | 58 | 249 | 4.3 | 7.0 | 0.00 | 0.00 | 0.00 | 72 | 1007.0 |
| 20260506050749 | 58 | 294 | 4.3 | 7.0 | 0.00 | 0.00 | 0.00 | 72 | 1006.9 |
| 20260506050254 | 57 | 251 | 3.5 | 8.7 | 0.00 | 0.00 | 0.00 | 72 | 1006.8 |
| 20260506044812 | 58 | 267 | 2.6 | 4.3 | 0.00 | 0.00 | 0.00 | 73 | 1006.8 |
| 20260506044317 | 56 | 270 | 3.5 | 5.2 | 0.00 | 0.00 | 0.00 | 75 | 1006.8 |
| 20260506043822 | 55 | 261 | 2.6 | 5.2 | 0.00 | 0.00 | 0.00 | 77 | 1006.9 |
| 20260506043328 | 54 | 277 | 3.5 | 7.0 | 0.00 | 0.00 | 0.00 | 78 | 1006.9 |
| 20260506042834 | 55 | 271 | 3.5 | 7.0 | 0.00 | 0.00 | 0.00 | 77 | 1007.0 |
| 20260506042340 | 54 | 234 | 3.5 | 7.8 | 0.00 | 0.00 | 0.00 | 77 | 1006.9 |
| 20260506041845 | 54 | 261 | 3.5 | 7.0 | 0.00 | 0.00 | 0.00 | 78 | 1006.8 |
| 20260506041351 | 54 | 262 | 3.5 | 6.1 | 0.00 | 0.00 | 0.00 | 77 | 1006.8 |
| 20260506040857 | 55 | 261 | 3.5 | 5.2 | 0.00 | 0.00 | 0.00 | 79 | 1006.7 |
| 20260506040403 | 54 | 283 | 3.5 | 5.2 | 0.00 | 0.00 | 0.00 | 80 | 1006.6 |
| 20260506035908 | 54 | 258 | 2.6 | 4.3 | 0.00 | 0.00 | 0.00 | 84 | 1006.6 |
| 20260506035414 | 53 | 283 | 2.6 | 4.3 | 0.00 | 0.00 | 0.00 | 88 | 1006.4 |
| 20260506034920 | 52 | 274 | 3.5 | 8.7 | 0.00 | 0.00 | 0.00 | 90 | 1006.5 |
| 20260506034426 | 51 | 300 | 2.6 | 5.2 | 0.00 | 0.00 | 0.00 | 92 | 1006.5 |
| 20260506033932 | 51 | 299 | 2.6 | 6.1 | 0.00 | 0.00 | 0.00 | 92 | 1006.6 |
| 20260506033438 | 51 | 285 | 2.6 | 4.3 | 0.00 | 0.00 | 0.00 | 91 | 1006.6 |
| 20260506032943 | 51 | 291 | 2.6 | 5.2 | 0.00 | 0.00 | 0.00 | 93 | 1006.6 |
| 20260506032449 | 51 | 287 | 2.6 | 4.3 | 0.00 | 0.00 | 0.00 | 92 | 1006.6 |
| 20260506031955 | 51 | 277 | 2.6 | 4.3 | 0.00 | 0.00 | 0.00 | 91 | 1006.6 |
| 20260506031501 | 51 | 293 | 2.6 | 5.2 | 0.00 | 0.00 | 0.00 | 90 | 1006.6 |
| 20260506031007 | 51 | 280 | 2.6 | 3.5 | 0.00 | 0.00 | 0.00 | 90 | 1006.6 |
| 20260506030513 | 51 | 246 | 2.6 | 4.3 | 0.00 | 0.00 | 0.00 | 89 | 1006.6 |
| 20260506030018 | 51 | 263 | 1.7 | 3.5 | 0.00 | 0.00 | 0.00 | 90 | 1006.6 |
| 20260506025524 | 51 | 286 | 1.7 | 3.5 | 0.00 | 0.00 | 0.00 | 91 | 1006.5 |
| 20260506025030 | 51 | 283 | 1.7 | 2.6 | 0.00 | 0.00 | 0.00 | 91 | 1006.5 |
| 20260506024536 | 51 | 264 | 1.7 | 2.6 | 0.00 | 0.00 | 0.00 | 90 | 1006.6 |
| 20260506024042 | 51 | 235 | 1.7 | 3.5 | 0.00 | 0.00 | 0.00 | 90 | 1006.7 |
| 20260506023548 | 51 | 273 | 1.7 | 2.6 | 0.00 | 0.00 | 0.00 | 92 | 1006.8 |
| 20260506023053 | 51 | 300 | 1.7 | 2.6 | 0.00 | 0.00 | 0.00 | 93 | 1006.8 |
| 20260506022559 | 52 | 312 | 1.7 | 2.6 | 0.00 | 0.00 | 0.00 | 95 | 1006.8 |
| 20260506022105 | 52 | 294 | 1.7 | 3.5 | 0.00 | 0.00 | 0.00 | 96 | 1006.8 |
| 20260506021611 | 52 | 309 | 2.6 | 3.5 | 0.00 | 0.00 | 0.00 | 98 | 1006.8 |
| 20260506021117 | 52 | 306 | 1.7 | 2.6 | 0.00 | 0.00 | 0.00 | 97 | 1006.8 |
| 20260506020128 | 52 | 322 | 2.6 | 4.3 | 0.00 | 0.00 | 0.00 | 100 | 1006.8 |
| 20260506015634 | 52 | 321 | 2.6 | 3.5 | 0.00 | 0.00 | 0.00 | 100 | 1006.8 |
| 20260506015140 | 52 | 324 | 2.6 | 3.5 | 0.00 | 0.00 | 0.00 | 100 | 1006.8 |
| 20260506014646 | 52 | 327 | 2.6 | 4.3 | 0.00 | 0.00 | 0.00 | 100 | 1006.8 |
| 20260506014152 | 52 | 315 | 2.6 | 4.3 | 0.00 | 0.00 | 0.00 | 100 | 1006.7 |
| 20260506013657 | 52 | 318 | 3.5 | 5.2 | 0.00 | 0.00 | 0.00 | 100 | 1006.7 |
| 20260506013204 | 52 | 321 | 3.5 | 4.3 | 0.00 | 0.00 | 0.00 | 100 | 1006.7 |
| 20260506012709 | 52 | 318 | 3.5 | 4.3 | 0.00 | 0.00 | 0.00 | 100 | 1006.6 |
| 20260506011721 | 52 | 318 | 2.6 | 5.2 | 0.00 | 0.00 | 0.00 | 100 | 1006.5 |
| 20260506011227 | 52 | 316 | 3.5 | 5.2 | 0.00 | 0.00 | 0.00 | 100 | 1006.5 |
| 20260506010732 | 53 | 319 | 4.3 | 5.2 | 0.00 | 0.00 | 0.00 | 100 | 1006.6 |
| 20260506010238 | 53 | 316 | 3.5 | 4.3 | 0.00 | 0.00 | 0.00 | 97 | 1006.6 |
| 20260506005744 | 53 | 316 | 3.5 | 5.2 | 0.00 | 0.00 | 0.00 | 96 | 1006.5 |
| 20260506005250 | 53 | 319 | 2.6 | 4.3 | 0.00 | 0.00 | 0.00 | 94 | 1006.6 |
| 20260506004755 | 53 | 308 | 1.7 | 3.5 | 0.00 | 0.00 | 0.00 | 94 | 1006.4 |
| 20260506004302 | 53 | 322 | 2.6 | 4.3 | 0.00 | 0.00 | 0.00 | 95 | 1006.6 |
| 20260506003807 | 53 | 312 | 2.6 | 4.3 | 0.00 | 0.00 | 0.00 | 96 | 1006.7 |
| 20260506003313 | 53 | 311 | 2.6 | 4.3 | 0.00 | 0.00 | 0.00 | 94 | 1006.8 |
| 20260506002819 | 53 | 312 | 2.6 | 2.6 | 0.00 | 0.00 | 0.00 | 92 | 1006.7 |
| 20260506002324 | 53 | 306 | 2.6 | 3.5 | 0.00 | 0.00 | 0.00 | 93 | 1006.7 |
| 20260506001830 | 53 | 321 | 2.6 | 3.5 | 0.00 | 0.00 | 0.00 | 94 | 1006.5 |
| 20260506001336 | 53 | 313 | 1.7 | 3.5 | 0.00 | 0.00 | 0.00 | 93 | 1006.6 |
| 20260506000842 | 53 | 305 | 2.6 | 4.3 | 0.00 | 0.00 | 0.00 | 94 | 1006.6 |
| 20260506000348 | 53 | 308 | 3.5 | 4.3 | 0.00 | 0.00 | 0.00 | 93 | 1006.6 |
| 20260505235853 | 53 | 294 | 2.6 | 6.1 | 0.00 | 0.00 | 0.00 | 90 | 1006.7 |
| 20260505235359 | 53 | 272 | 1.7 | 3.5 | 0.00 | 0.00 | 0.00 | 86 | 1006.7 |
| 20260505234905 | 53 | 231 | 1.7 | 2.6 | 0.00 | 0.00 | 0.00 | 85 | 1006.8 |
| 20260505234411 | 53 | 222 | 2.6 | 3.5 | 0.00 | 0.00 | 0.00 | 85 | 1006.7 |
| 20260505233916 | 53 | 204 | 4.3 | 5.2 | 0.00 | 0.00 | 0.00 | 85 | 1006.6 |
| 20260505233422 | 53 | 249 | 1.7 | 3.5 | 0.00 | 0.00 | 0.00 | 85 | 1006.6 |
| 20260505232928 | 53 | 289 | 1.7 | 2.6 | 0.00 | 0.00 | 0.00 | 87 | 1006.6 |
| 20260505232434 | 53 | 239 | 3.5 | 6.1 | 0.00 | 0.00 | 0.00 | 86 | 1006.7 |
| 20260505231939 | 53 | 192 | 5.2 | 7.0 | 0.00 | 0.00 | 0.00 | 85 | 1006.7 |
| 20260505231445 | 53 | 225 | 2.6 | 4.3 | 0.00 | 0.00 | 0.00 | 83 | 1006.7 |
| 20260505230951 | 53 | 303 | 1.7 | 3.5 | 0.00 | 0.00 | 0.00 | 86 | 1006.6 |
| 20260505230457 | 53 | 117 | 2.6 | 4.3 | 0.00 | 0.00 | 0.00 | 87 | 1006.4 |
| 20260505230003 | 53 | 157 | 2.6 | 3.5 | 0.00 | 0.00 | 0.00 | 87 | 1006.5 |
| 20260505225508 | 53 | 357 | 1.7 | 3.5 | 0.00 | 0.00 | 0.00 | 88 | 1006.4 |
| 20260505225014 | 53 | 8 | 1.7 | 4.3 | 0.00 | 0.00 | 0.00 | 88 | 1006.2 |
| 20260505224520 | 53 | 348 | 1.7 | 1.7 | 0.00 | 0.00 | 0.00 | 87 | 1006.2 |
| 20260505224025 | 53 | 294 | 0.9 | 3.5 | 0.00 | 0.00 | 0.00 | 88 | 1006.5 |
| 20260505223531 | 53 | 315 | 1.7 | 2.6 | 0.00 | 0.00 | 0.00 | 88 | 1006.7 |
| 20260505223037 | 53 | 332 | 1.7 | 4.3 | 0.00 | 0.00 | 0.00 | 88 | 1006.8 |
| 20260505222543 | 53 | 8 | 1.7 | 2.6 | 0.00 | 0.00 | 0.00 | 89 | 1006.9 |
| 20260505222048 | 53 | 329 | 2.6 | 5.2 | 0.00 | 0.00 | 0.00 | 89 | 1007.1 |
| 20260505221554 | 53 | 351 | 1.7 | 3.5 | 0.00 | 0.00 | 0.00 | 90 | 1007.2 |
| 20260505221100 | 53 | 356 | 2.6 | 5.2 | 0.00 | 0.00 | 0.00 | 91 | 1007.2 |
| 20260505220606 | 53 | 341 | 3.5 | 6.1 | 0.00 | 0.00 | 0.00 | 93 | 1007.2 |
| 20260505220111 | 53 | 328 | 3.5 | 5.2 | 0.00 | 0.00 | 0.00 | 95 | 1007.1 |
| 20260505215617 | 53 | 324 | 3.5 | 6.1 | 0.00 | 0.00 | 0.00 | 93 | 1007.3 |
| 20260505215123 | 53 | 330 | 3.5 | 6.1 | 0.00 | 0.00 | 0.00 | 92 | 1007.3 |
| 20260505214629 | 53 | 342 | 4.3 | 6.1 | 0.00 | 0.00 | 0.00 | 90 | 1007.4 |
| 20260505214134 | 53 | 328 | 3.5 | 6.1 | 0.00 | 0.00 | 0.00 | 91 | 1007.5 |
| 20260505213640 | 53 | 336 | 4.3 | 7.0 | 0.00 | 0.00 | 0.00 | 92 | 1007.5 |
| 20260505213146 | 53 | 324 | 3.5 | 4.3 | 0.00 | 0.00 | 0.00 | 92 | 1007.6 |
| 20260505212652 | 54 | 339 | 3.5 | 7.0 | 0.00 | 0.00 | 0.00 | 89 | 1007.6 |
| 20260505212157 | 54 | 326 | 4.3 | 7.0 | 0.00 | 0.00 | 0.00 | 90 | 1007.6 |
| 20260505211703 | 54 | 331 | 4.3 | 7.0 | 0.00 | 0.00 | 0.00 | 90 | 1007.6 |
| 20260505211209 | 55 | 315 | 4.3 | 7.8 | 0.00 | 0.00 | 0.00 | 86 | 1007.3 |
| 20260505210714 | 56 | 323 | 5.2 | 9.6 | 0.00 | 0.00 | 0.00 | 83 | 1007.0 |
| 20260505210219 | 58 | 322 | 7.8 | 13.9 | 0.00 | 0.00 | 0.00 | 82 | 1006.9 |
| 20260505205725 | 61 | 309 | 6.1 | 9.6 | 0.00 | 0.00 | 0.00 | 79 | 1006.7 |
| 20260505205230 | 62 | 294 | 3.5 | 5.2 | 0.00 | 0.00 | 0.00 | 71 | 1006.6 |
| 20260505204735 | 62 | 312 | 3.5 | 4.3 | 0.00 | 0.00 | 0.00 | 72 | 1006.2 |
| 20260505203747 | 62 | 318 | 2.6 | 4.3 | 0.00 | 0.00 | 0.00 | 67 | 1005.6 |
| 20260505203252 | 62 | 331 | 2.6 | 4.3 | 0.00 | 0.00 | 0.00 | 65 | 1005.0 |
| 20260505202757 | 62 | 355 | 2.6 | 4.3 | 0.00 | 0.00 | 0.00 | 65 | 1004.7 |
| 20260505202306 | 62 | 321 | 2.6 | 7.0 | 0.00 | 0.00 | 0.00 | 65 | 1004.7 |
| 20260505201808 | 62 | 346 | 2.6 | 6.1 | 0.00 | 0.00 | 0.00 | 64 | 1004.6 |
| 20260505201313 | 62 | 328 | 2.6 | 5.2 | 0.00 | 0.00 | 0.00 | 64 | 1004.5 |
| 20260505200324 | 62 | 352 | 2.6 | 4.3 | 0.00 | 0.00 | 0.00 | 64 | 1004.4 |
| 20260505195829 | 62 | 341 | 1.7 | 3.5 | 0.00 | 0.00 | 0.00 | 63 | 1004.4 |
| 20260505195335 | 62 | 5 | 2.6 | 7.8 | 0.00 | 0.00 | 0.00 | 63 | 1004.3 |
| 20260505194840 | 62 | 340 | 1.7 | 2.6 | 0.00 | 0.00 | 0.00 | 62 | 1004.5 |
| 20260505194346 | 62 | 350 | 1.7 | 3.5 | 0.00 | 0.00 | 0.00 | 62 | 1004.5 |
| 20260505193851 | 62 | 317 | 1.7 | 4.3 | 0.00 | 0.00 | 0.00 | 62 | 1004.5 |
| 20260505193356 | 62 | 330 | 1.7 | 3.5 | 0.00 | 0.00 | 0.00 | 63 | 1004.5 |
| 20260505192902 | 61 | 353 | 1.7 | 3.5 | 0.00 | 0.00 | 0.00 | 62 | 1004.4 |
| 20260505192407 | 61 | 310 | 0.9 | 2.6 | 0.00 | 0.00 | 0.00 | 61 | 1004.6 |
| 20260505191913 | 62 | 330 | 0.9 | 1.7 | 0.00 | 0.00 | 0.00 | 61 | 1004.8 |
| 20260505190924 | 61 | 9 | 1.7 | 3.5 | 0.00 | 0.00 | 0.00 | 61 | 1004.9 |
| 20260505190429 | 61 | 330 | 1.7 | 2.6 | 0.00 | 0.00 | 0.00 | 60 | 1005.0 |
| 20260505185935 | 61 | 342 | 1.7 | 2.6 | 0.00 | 0.00 | 0.00 | 59 | 1005.1 |
| 20260505185440 | 62 | 333 | 1.7 | 2.6 | 0.00 | 0.00 | 0.00 | 58 | 1005.3 |
| 20260505184946 | 62 | 5 | 0.9 | 2.6 | 0.00 | 0.00 | 0.00 | 56 | 1005.4 |
| 20260505184451 | 62 | 322 | 0.9 | 3.5 | 0.00 | 0.00 | 0.00 | 55 | 1005.4 |
| 20260505183956 | 63 | 20 | 2.6 | 3.5 | 0.00 | 0.00 | 0.00 | 55 | 1005.3 |
| 20260505183502 | 63 | 60 | 4.3 | 6.1 | 0.00 | 0.00 | 0.00 | 54 | 1005.3 |
| 20260505183007 | 63 | 54 | 4.3 | 5.2 | 0.00 | 0.00 | 0.00 | 56 | 1005.2 |
| 20260505182018 | 62 | 75 | 5.2 | 7.0 | 0.00 | 0.00 | 0.00 | 59 | 1005.2 |
| 20260505181523 | 63 | 87 | 5.2 | 7.0 | 0.00 | 0.00 | 0.00 | 62 | 1005.3 |
| 20260505181028 | 63 | 91 | 7.0 | 9.6 | 0.00 | 0.00 | 0.00 | 70 | 1005.3 |
| 20260505180534 | 64 | 100 | 7.8 | 9.6 | 0.00 | 0.00 | 0.00 | 73 | 1005.4 |
| 20260505180039 | 65 | 137 | 8.7 | 10.4 | 0.00 | 0.00 | 0.00 | 65 | 1005.4 |
| 20260505175544 | 68 | 118 | 8.7 | 11.3 | 0.00 | 0.00 | 0.00 | 53 | 1005.4 |
| 20260505175049 | 69 | 111 | 5.2 | 6.1 | 0.00 | 0.00 | 0.00 | 55 | 1005.2 |
| 20260505174554 | 69 | 140 | 3.5 | 6.1 | 0.00 | 0.00 | 0.00 | 49 | 1005.1 |
| 20260505174059 | 69 | 278 | 0.9 | 2.6 | 0.00 | 0.00 | 0.00 | 42 | 1005.0 |
| 20260505173604 | 70 | 2 | 1.7 | 3.5 | 0.00 | 0.00 | 0.00 | 42 | 1005.0 |
| 20260505173109 | 70 | 221 | 1.7 | 4.3 | 0.00 | 0.00 | 0.00 | 41 | 1004.9 |
| 20260505172614 | 70 | 316 | 1.7 | 5.2 | 0.00 | 0.00 | 0.00 | 41 | 1004.9 |
| 20260505172119 | 71 | 130 | 2.6 | 3.5 | 0.00 | 0.00 | 0.00 | 41 | 1004.9 |
| 20260505171128 | 72 | 58 | 2.6 | 6.1 | 0.00 | 0.00 | 0.00 | 40 | 1005.0 |
| 20260505170633 | 72 | 23 | 2.6 | 5.2 | 0.00 | 0.00 | 0.00 | 40 | 1005.1 |
| 20260505170138 | 73 | 68 | 1.7 | 4.3 | 0.00 | 0.00 | 0.00 | 39 | 1005.1 |
| 20260505165643 | 74 | 8 | 2.6 | 6.1 | 0.00 | 0.00 | 0.00 | 38 | 1005.1 |
| 20260505165147 | 74 | 231 | 2.6 | 6.1 | 0.00 | 0.00 | 0.00 | 38 | 1005.1 |
| 20260505164653 | 74 | 175 | 2.6 | 5.2 | 0.00 | 0.00 | 0.00 | 38 | 1005.1 |
| 20260505164157 | 74 | 98 | 2.6 | 4.3 | 0.00 | 0.00 | 0.00 | 38 | 1005.0 |
| 20260505163701 | 75 | 92 | 2.6 | 7.8 | 0.00 | 0.00 | 0.00 | 38 | 1005.0 |
| 20260505163206 | 75 | 121 | 2.6 | 5.2 | 0.00 | 0.00 | 0.00 | 37 | 1005.0 |
| 20260505162710 | 76 | 138 | 3.5 | 6.1 | 0.00 | 0.00 | 0.00 | 37 | 1004.9 |
| 20260505162215 | 76 | 204 | 2.6 | 4.3 | 0.00 | 0.00 | 0.00 | 37 | 1004.8 |
| 20260505161720 | 77 | 164 | 2.6 | 4.3 | 0.00 | 0.00 | 0.00 | 37 | 1004.9 |
| 20260505160728 | 77 | 98 | 2.6 | 4.3 | 0.00 | 0.00 | 0.00 | 37 | 1005.0 |
| 20260505153259 | 79 | 127 | 3.5 | 6.1 | 0.00 | 0.00 | 0.00 | 35 | 1005.2 |
| 20260505152803 | 79 | 78 | 1.7 | 4.3 | 0.00 | 0.00 | 0.00 | 35 | 1005.4 |
| 20260505152308 | 79 | 57 | 2.6 | 4.3 | 0.00 | 0.00 | 0.00 | 35 | 1005.4 |
| 20260505151812 | 78 | 29 | 2.6 | 4.3 | 0.00 | 0.00 | 0.00 | 35 | 1005.6 |
| 20260505151317 | 77 | 173 | 2.6 | 5.2 | 0.00 | 0.00 | 0.00 | 34 | 1005.5 |
| 20260505150821 | 77 | 193 | 2.6 | 7.8 | 0.00 | 0.00 | 0.00 | 35 | 1005.5 |
| 20260505150326 | 77 | 172 | 2.6 | 6.1 | 0.00 | 0.00 | 0.00 | 34 | 1005.6 |
| 20260505140418 | 81 | 139 | 7.0 | 9.6 | 0.00 | 0.00 | 0.00 | 32 | 1005.9 |
| 20260505125017 | 84 | 102 | 3.5 | 5.2 | 0.00 | 0.00 | 0.00 | 33 | 1006.3 |
| 20260505123528 | 83 | 159 | 2.6 | 4.3 | 0.00 | 0.00 | 0.00 | 35 | 1006.6 |
| 20260505123032 | 83 | 179 | 5.2 | 7.0 | 0.00 | 0.00 | 0.00 | 35 | 1006.7 |
| 20260505122536 | 84 | 167 | 4.3 | 7.0 | 0.00 | 0.00 | 0.00 | 32 | 1006.7 |
| 20260505122040 | 85 | 142 | 4.3 | 7.0 | 0.00 | 0.00 | 0.00 | 36 | 1006.8 |
| 20260505121543 | 86 | 117 | 2.6 | 7.0 | 0.00 | 0.00 | 0.00 | 32 | 1006.8 |
| 20260505121047 | 86 | 139 | 3.5 | 5.2 | 0.00 | 0.00 | 0.00 | 36 | 1006.9 |
| 20260505120551 | 86 | 92 | 2.6 | 4.3 | 0.00 | 0.00 | 0.00 | 36 | 1006.9 |
| 20260505120054 | 87 | 132 | 1.7 | 3.5 | 0.00 | 0.00 | 0.00 | 36 | 1007.0 |
| 20260505115558 | 86 | 89 | 3.5 | 6.1 | 0.00 | 0.00 | 0.00 | 37 | 1007.1 |
| 20260505115102 | 87 | 116 | 2.6 | 5.2 | 0.00 | 0.00 | 0.00 | 36 | 1007.1 |
| 20260505114605 | 88 | 93 | 2.6 | 4.3 | 0.00 | 0.00 | 0.00 | 35 | 1007.0 |
| 20260505114109 | 89 | 223 | 2.6 | 5.2 | 0.00 | 0.00 | 0.00 | 33 | 1007.0 |
| 20260505113612 | 89 | 28 | 1.7 | 3.5 | 0.00 | 0.00 | 0.00 | 35 | 1007.2 |
| 20260505113116 | 88 | 332 | 1.7 | 3.5 | 0.00 | 0.00 | 0.00 | 36 | 1007.2 |
| 20260505112620 | 86 | 63 | 2.6 | 3.5 | 0.00 | 0.00 | 0.00 | 37 | 1007.3 |
| 20260505112124 | 85 | 126 | 2.6 | 4.3 | 0.00 | 0.00 | 0.00 | 37 | 1007.3 |
| 20260505111627 | 87 | 197 | 2.6 | 5.2 | 0.00 | 0.00 | 0.00 | 34 | 1007.4 |
| 20260505111131 | 88 | 59 | 2.6 | 4.3 | 0.00 | 0.00 | 0.00 | 36 | 1007.4 |
| 20260505110635 | 87 | 28 | 1.7 | 3.5 | 0.00 | 0.00 | 0.00 | 36 | 1007.4 |
| 20260505110139 | 85 | 152 | 2.6 | 5.2 | 0.00 | 0.00 | 0.00 | 37 | 1007.5 |
| 20260505102210 | 85 | 280 | 0.9 | 2.6 | 0.00 | 0.00 | 0.00 | 37 | 1008.0 |
| 20260505101715 | 82 | 135 | 2.6 | 4.3 | 0.00 | 0.00 | 0.00 | 38 | 1008.1 |
| 20260505101219 | 80 | 164 | 2.6 | 4.3 | 0.00 | 0.00 | 0.00 | 38 | 1008.0 |
| 20260505100723 | 78 | 152 | 2.6 | 3.5 | 0.00 | 0.00 | 0.00 | 39 | 1008.1 |
| 20260505100227 | 78 | 80 | 1.7 | 4.3 | 0.00 | 0.00 | 0.00 | 39 | 1008.1 |
| 20260505095732 | 79 | 86 | 4.3 | 6.1 | 0.00 | 0.00 | 0.00 | 39 | 1008.1 |
| 20260505095236 | 81 | 114 | 4.3 | 6.1 | 0.00 | 0.00 | 0.00 | 37 | 1008.1 |
| 20260505094740 | 82 | 139 | 3.5 | 6.1 | 0.00 | 0.00 | 0.00 | 37 | 1008.0 |
| 20260505094244 | 81 | 132 | 4.3 | 6.1 | 0.00 | 0.00 | 0.00 | 38 | 1008.1 |
| 20260505093748 | 83 | 74 | 3.5 | 5.2 | 0.00 | 0.00 | 0.00 | 36 | 1008.2 |
| 20260505093252 | 82 | 78 | 2.6 | 4.3 | 0.00 | 0.00 | 0.00 | 40 | 1008.3 |
| 20260505092756 | 80 | 110 | 3.5 | 5.2 | 0.00 | 0.00 | 0.00 | 40 | 1008.3 |
| 20260505092300 | 80 | 99 | 4.3 | 5.2 | 0.00 | 0.00 | 0.00 | 40 | 1008.4 |
| 20260505091805 | 81 | 111 | 3.5 | 5.2 | 0.00 | 0.00 | 0.00 | 40 | 1008.4 |
| 20260505091309 | 81 | 107 | 2.6 | 3.5 | 0.00 | 0.00 | 0.00 | 41 | 1008.4 |
| 20260505090813 | 80 | 118 | 3.5 | 6.1 | 0.00 | 0.00 | 0.00 | 39 | 1008.5 |
| 20260505090317 | 82 | 156 | 2.6 | 4.3 | 0.00 | 0.00 | 0.00 | 40 | 1008.5 |
| 20260505085821 | 81 | 111 | 3.5 | 5.2 | 0.00 | 0.00 | 0.00 | 41 | 1008.6 |
| 20260505084829 | 81 | 129 | 2.6 | 3.5 | 0.00 | 0.00 | 0.00 | 41 | 1008.6 |
| 20260505084334 | 80 | 111 | 2.6 | 5.2 | 0.00 | 0.00 | 0.00 | 41 | 1008.6 |
| 20260505083838 | 79 | 94 | 2.6 | 7.0 | 0.00 | 0.00 | 0.00 | 42 | 1008.6 |
| 20260505083342 | 78 | 117 | 3.5 | 5.2 | 0.00 | 0.00 | 0.00 | 43 | 1008.6 |
| 20260505082847 | 78 | 84 | 3.5 | 5.2 | 0.00 | 0.00 | 0.00 | 43 | 1008.7 |
| 20260505082351 | 77 | 129 | 2.6 | 4.3 | 0.00 | 0.00 | 0.00 | 44 | 1008.7 |
| 20260505081856 | 75 | 122 | 4.3 | 6.1 | 0.00 | 0.00 | 0.00 | 43 | 1008.8 |
| 20260505081401 | 75 | 102 | 3.5 | 6.1 | 0.00 | 0.00 | 0.00 | 44 | 1008.9 |
| 20260505080905 | 74 | 106 | 4.3 | 5.2 | 0.00 | 0.00 | 0.00 | 44 | 1008.9 |
| 20260505080410 | 73 | 105 | 3.5 | 4.3 | 0.00 | 0.00 | 0.00 | 46 | 1008.9 |
| 20260505075915 | 73 | 96 | 3.5 | 6.1 | 0.00 | 0.00 | 0.00 | 45 | 1008.9 |
| 20260505075419 | 74 | 111 | 3.5 | 4.3 | 0.00 | 0.00 | 0.00 | 45 | 1008.9 |
| 20260505074924 | 75 | 132 | 4.3 | 6.1 | 0.00 | 0.00 | 0.00 | 45 | 1009.0 |
| 20260505074429 | 77 | 148 | 2.6 | 5.2 | 0.00 | 0.00 | 0.00 | 44 | 1009.1 |
| 20260505073933 | 76 | 128 | 2.6 | 4.3 | 0.00 | 0.00 | 0.00 | 46 | 1009.1 |
| 20260505073438 | 75 | 96 | 4.3 | 6.1 | 0.00 | 0.00 | 0.00 | 45 | 1009.1 |
| 20260505072942 | 75 | 117 | 3.5 | 6.1 | 0.00 | 0.00 | 0.00 | 45 | 1009.1 |
| 20260505072447 | 74 | 118 | 3.5 | 5.2 | 0.00 | 0.00 | 0.00 | 47 | 1009.1 |
| 20260505071952 | 73 | 113 | 3.5 | 6.1 | 0.00 | 0.00 | 0.00 | 46 | 1009.2 |
| 20260505071457 | 74 | 122 | 3.5 | 6.1 | 0.00 | 0.00 | 0.00 | 47 | 1009.2 |
| 20260505071002 | 75 | 101 | 3.5 | 4.3 | 0.00 | 0.00 | 0.00 | 46 | 1009.2 |
| 20260505070506 | 75 | 140 | 2.6 | 4.3 | 0.00 | 0.00 | 0.00 | 46 | 1009.3 |
| 20260505070011 | 74 | 156 | 2.6 | 4.3 | 0.00 | 0.00 | 0.00 | 47 | 1009.3 |
| 20260505065515 | 74 | 136 | 1.7 | 3.5 | 0.00 | 0.00 | 0.00 | 47 | 1009.3 |
| 20260505064525 | 70 | 82 | 1.7 | 2.6 | 0.00 | 0.00 | 0.00 | 50 | 1009.4 |
| 20260505064031 | 67 | 47 | 1.7 | 2.6 | 0.00 | 0.00 | 0.00 | 51 | 1009.4 |
| 20260505063536 | 66 | 57 | 1.7 | 2.6 | 0.00 | 0.00 | 0.00 | 52 | 1009.5 |
| 20260505063041 | 66 | 357 | 0.9 | 1.7 | 0.00 | 0.00 | 0.00 | 53 | 1009.5 |
| 20260505062547 | 65 | 256 | 0.0 | 1.7 | 0.00 | 0.00 | 0.00 | 55 | 1009.5 |
| 20260505061557 | 63 | 71 | 1.7 | 2.6 | 0.00 | 0.00 | 0.00 | 55 | 1009.5 |
| 20260505061103 | 63 | 99 | 1.7 | 2.6 | 0.00 | 0.00 | 0.00 | 56 | 1009.6 |
| 20260505060608 | 62 | 111 | 1.7 | 1.7 | 0.00 | 0.00 | 0.00 | 56 | 1009.7 |
| 20260505060114 | 61 | 128 | 0.9 | 1.7 | 0.00 | 0.00 | 0.00 | 57 | 1009.7 |
| 20260505055619 | 61 | 195 | 0.9 | 1.7 | 0.00 | 0.00 | 0.00 | 57 | 1009.7 |
| 20260505055125 | 60 | 324 | 0.9 | 1.7 | 0.00 | 0.00 | 0.00 | 57 | 1009.7 |